Regional Weather Roundup
Issued by NWS

Home | Current Version | Previous Version | Graphics & Text | Print | Product List | Glossary On
Versions: 1 2 3 4 5 6 7 8 9 10 11 12 13 14 15 16 17 18 19 20 21 22 23 24 25 26 27 28 29 30 31 32 33 34 35 36 37 38 39 40 41 42 43 44 45 46 47 48 49 50
000
ASUS43 KFSD 071802
RWRSD

WEATHER ROUNDUP FOR SOUTH DAKOTA
NATIONAL WEATHER SERVICE SIOUX FALLS SD
1200 PM CST WED DEC 07 2016

NOTE: "FAIR" INDICATES FEW OR NO CLOUDS BELOW 12,000 FEET WITH NO
SIGNIFICANT WEATHER AND/OR OBSTRUCTIONS TO VISIBILITY.


SDZ001>005-009-010-012>017-071900-
NORTHWEST AND NORTH CENTRAL SOUTH DAKOTA

CITY           SKY/WX    TMP DP  RH WIND       PRES   REMARKS
BUFFALO          N/A      6  -4  63 NW35      30.25S WCI -19
FAITH            N/A      5  -1  76 NW28G38   30.31R WCI -18
MOBRIDGE       MOSUNNY   11   1  64 NW30G39   30.24S WCI -11
$$

SDZ012>016-024>037-041>051-057-063-072>074-071900-
SOUTHWEST AND SOUTH CENTRAL SOUTH DAKOTA

CITY           SKY/WX    TMP DP  RH WIND       PRES   REMARKS
RAPID CTY ARPT CLOUDY    13  -2  51 NW25G36   30.33S WCI  -7
PIERRE         CLOUDY    12   3  67 NW26G36   30.33S WCI  -8
CUSTER         CLOUDY     8  -5  55 CALM      30.10R
ELLSWORTH AFB  CLOUDY    11  -4  52 NW23G31   30.31S WCI  -9
PHILIP         CLOUDY    12   0  58 W22G31    30.38S WCI  -7
PINE RIDGE     SUNNY      8   1  73 W7        30.33S WCI  -3
SPEARFISH      FAIR       5  -4  66 W18       30.30S WCI -15
WINNER         FAIR      13   0  56 NW23G32   30.34S WCI  -6
$$

SDZ004>011-016>023-039-040-071900-
NORTHEAST SOUTH DAKOTA

CITY           SKY/WX    TMP DP  RH WIND       PRES   REMARKS
ABERDEEN       CLOUDY    15   2  56 NW28G40   30.21R WCI  -5
WATERTOWN      CLOUDY    12   5  73 W25G33    30.13F HAZE    WCI  -8
SISSETON         N/A     16   6  65 NW25G43   30.11R WCI  -3
$$

SDZ017-020-022-023-036>040-048>070-071900-
SOUTHEAST SOUTH DAKOTA

CITY           SKY/WX    TMP DP  RH WIND       PRES   REMARKS
SIOUX FALLS    PTSUNNY   16   6  65 W23G32    30.22S WCI  -2
HURON          CLOUDY    15   5  64 NW29G36   30.27S WCI  -5
MITCHELL       CLOUDY    16   5  62 NW21G31   30.30S WCI  -1
YANKTON        MOSUNNY  N/A N/A N/A W24       30.29S
$$

ABBREVIATIONS USED IN REMARKS
   TC - TEMPERATURE IN CELSIUS
  WCI - WIND CHILL INDEX
   HX - HEAT INDEX
  VSB - VISIBILITY




USA.gov is the U.S. government's official web portal to all federal, state and local government web resources and services.